Regional Weather Roundup
Issued by NWS

Home | Current Version | Previous Version | Graphics & Text | Print | Product List | Glossary Off
Versions: 1 2 3 4 5 6 7 8 9 10 11 12 13 14 15 16 17 18 19 20 21 22 23 24 25 26 27 28 29 30 31 32 33 34 35 36 37 38 39 40 41 42 43 44 45 46 47 48 49 50

000
ASUS43 KDMX 062206
RWRIA

WEATHER ROUNDUP FOR IOWA
NATIONAL WEATHER SERVICE DES MOINES IA
400 PM CST TUE DEC 06 2016

NOTE: "FAIR" INDICATES FEW OR NO CLOUDS BELOW 12,000 FEET WITH NO
SIGNIFICANT WEATHER AND/OR OBSTRUCTIONS TO VISIBILITY.

* - THESE STATIONS ARE NOT NWS STATIONS...THUS NOT UNDER NWS
QUALITY CONTROL.  THEY ALSO DO NOT REPORT WEATHER SUCH
AS PRECIPITATION OR FOG.

IAZ001>003-012>014-020>022-031>034-043>046-062300-
   NORTHWEST IOWA

CITY           SKY/WX    TMP DP  RH WIND       PRES   REMARKS
CARROLL *      CLEAR     28  16  59 W22G28    29.93R WCI  15
CHEROKEE *     CLEAR     26  11  53 W17G28    29.92S WCI  13
DENISON *      CLEAR     28  12  50 W16G23    29.94R WCI  17
LE MARS *      CLEAR     27  10  50 W22G32    29.95S WCI  12
ORANGE CITY *  CLEAR     23  12  63 W25G35    29.91R WCI   7
SHELDON *      MOCLDY    23  12  63 W26G36    29.88R WCI   6
SIOUX CITY     CLEAR     30  11  45 NW21G28   29.96R WCI  17
SPENCER        MOCLDY    24  12  60 W36G46    29.88R WCI   6
STORM LAKE *   CLEAR     25  12  58 W24G35    29.89S WCI   9
$$

IAZ055>058-069>071-079>083-090>094-062300-
   SOUTHWEST IOWA

CITY           SKY/WX    TMP DP  RH WIND       PRES   REMARKS
ATLANTIC *     CLEAR     32  14  47 W15       29.98S WCI  22
AUDUBON *      CLEAR     30  14  51 W8G18     29.96R WCI  23
CLARINDA *     CLEAR     34  12  40 NW15      30.03R WCI  24
COUNCIL BLFS * CLEAR     32  10  40 NW12G21   29.99S WCI  23
CRESTON *      CLEAR     32  14  47 W17G23    29.98R WCI  21
HARLAN  *      CLEAR     30  14  51 W15G24    30.01R WCI  19
LAMONI         CLEAR     33  16  49 W15       29.97F WCI  23
RED OAK *      CLEAR     34  14  44 W16       30.00S WCI  23
SHENANDOAH *   CLEAR     34  12  40 W14       30.03R WCI  24
$$

IAZ047>049-059>061-072>074-084-062300-
   CENTRAL IOWA

CITY           SKY/WX    TMP DP  RH WIND       PRES   REMARKS
AMES           CLEAR     30  20  66 W17G25    29.94R WCI  18
ANKENY *       CLEAR     32  14  47 MISG      29.96R
BOONE *        CLEAR     28  16  59 W21G29    29.92R WCI  15
CHARITON *       N/A     32  16  51 W14       29.96S WCI  22
DES MOINES     PTCLDY    33  14  45 W17       29.95R WCI  22
GRINNELL*      CLEAR     31  19  62 W18G24    29.92S WCI  19
KNOXVILLE *    CLEAR     32  14  47 W18       29.94S WCI  20
MARSHALLTOWN   PTCLDY    29  19  66 W17G29    29.91R WCI  17
NEWTON *       CLEAR     32  18  55 W20       29.93R WCI  20
PELLA *        CLEAR     33  17  52 W12G18    29.96R WCI  24
PERRY *          N/A     31  19  62 W16G22    29.96R WCI  20
$$

IAZ004>006-015-016-023>025-035-036-062300-
   NORTH CENTRAL IOWA

CITY           SKY/WX    TMP DP  RH WIND       PRES   REMARKS
ALGONA *       MOCLDY    25  14  63 W28G37    29.87R WCI   8
CLARION *      PTCLDY    27  16  63 W23G31    29.89R WCI  12
ESTHERVILLE    MOCLDY    22  13  68 W23G35    29.84R WCI   6
FORT DODGE *   PTCLDY    27  12  54 W17G25    29.91R WCI  14
MASON CITY     PTCLDY    24  14  65 W24G33    29.86R WCI   8
FOREST CITY *  CLOUDY    25  16  68 W18G26    29.85R WCI  11
WEBSTER CITY * PTCLDY    27  18  69 W21G31    29.89R WCI  13
IOWA FALLS *     N/A     28  19  68 W22       29.89S WCI  15
$$

IAZ007>011-017>019-026>030-037>042-050>054-066-062300-
   NORTHEAST IOWA

CITY           SKY/WX    TMP DP  RH WIND       PRES   REMARKS
CEDAR RAPIDS   CLEAR     29  22  75 W16       29.90R WCI  17
CHARLES CITY * CLOUDY    25  18  74 W23G31    29.85R WCI  10
CLINTON *      CLEAR     31  25  78 W21       29.89R WCI  18
DECORAH *      CLOUDY    25  18  74 W10G21    29.81S WCI  15
DUBUQUE        MOCLDY    26  18  71 W22G29    29.86R WCI  12
MONTICELLO *   CLEAR     28  19  69 W22       29.88R WCI  15
OELWEIN *      CLOUDY    27  19  74 W17G25    29.86R WCI  14
WATERLOO       MOCLDY    27  17  66 W15G25    29.88R WCI  15
$$

IAZ064-065-067-068-078-062300-
   EAST CENTRAL IOWA

CITY           SKY/WX    TMP DP  RH WIND       PRES   REMARKS
DAVENPORT      PTCLDY    32  23  69 W21       29.91R WCI  20
IOWA CITY      CLEAR     32  20  61 W17       29.94R WCI  21
MUSCATINE *    CLEAR     34  19  55 W16       29.95R WCI  23
QUAD CITIES    CLEAR     34  20  56 W17G30    29.91R WCI  23
$$

IAZ062-063-075>077-085>089-095>099-062300-
   SOUTHEAST IOWA

CITY           SKY/WX    TMP DP  RH WIND       PRES   REMARKS
BURLINGTON     CLEAR     36  21  54 NW10G18   29.94R WCI  28
FAIRFIELD *    CLEAR     34  18  51 W15       29.95R WCI  24
FORT MADISON * CLEAR     37  21  52 W14       29.96R WCI  29
KEOKUK *       CLEAR     37  19  48 W14       29.96R WCI  29
OSKALOOSA *      N/A     32  19  59 W15G23    29.96R WCI  22
CENTERVILLE *    N/A     32  18  55 W15       29.98S WCI  22
OTTUMWA        CLEAR     34  16  47 W17       29.95R WCI  23
WASHINGTON *   CLEAR     32  19  59 W15G21    29.95R WCI  22
$$

ABBREVIATIONS USED IN REMARKS
   TC - TEMPERATURES IN CELSIUS
  WCI - WIND CHILL INDEX
   HX - HEAT INDEX
  VSB - VISIBILITY
$$




USA.gov is the U.S. government's official web portal to all federal, state and local government web resources and services.